QPF
0.01 0.01 0.00 0.00 0.00 0.01 0.01 0.01 0.01 0.01 0.00 0.01 0.01 0.02 0.02 0.02 0.02 0.01 0.02 0.02 0.02 0.03 0.03 0.05 0.06 0.06 0.09 0.14 0.17 0.15 0.12 0.11 0.15 0.16 0.17 0.15 0.15 0.13 0.12 0.13 0.16 0.19 0.19
0.01 0.00 0.00 0.00 0.01 0.01 0.02 0.01 0.01 0.01 0.01 0.01 0.01 0.01 0.02 0.02 0.02 0.02 0.02 0.02 0.02 0.03 0.03 0.03 0.04 0.04 0.06 0.08 0.14 0.17 0.14 0.12 0.16 0.21 0.23 0.22 0.23 0.21 0.14 0.14 0.16 0.16 0.16
0.01 0.00 0.00 0.00 0.01 0.02 0.03 0.02 0.02 0.02 0.01 0.01 0.01 0.01 0.02 0.01 0.02 0.02 0.03 0.03 0.03 0.02 0.02 0.02 0.03 0.03 0.03 0.05 0.12 0.19 0.18 0.15 0.18 0.21 0.24 0.23 0.24 0.27 0.19 0.18 0.18 0.14 0.13
0.01 0.00 0.00 0.00 0.00 0.02 0.05 0.03 0.02 0.02 0.02 0.02 0.01 0.02 0.02 0.02 0.02 0.02 0.02 0.03 0.03 0.03 0.02 0.02 0.02 0.03 0.03 0.03 0.07 0.15 0.22 0.20 0.17 0.18 0.17 0.18 0.20 0.31 0.28 0.23 0.20 0.14 0.12
0.01 0.00 0.00 0.01 0.01 0.01 0.03 0.03 0.02 0.02 0.02 0.02 0.02 0.02 0.03 0.02 0.02 0.02 0.02 0.02 0.02 0.02 0.01 0.02 0.02 0.02 0.03 0.03 0.05 0.07 0.10 0.13 0.16 0.16 0.14 0.17 0.19 0.27 0.30 0.23 0.22 0.16 0.12
0.02 0.01 0.00 0.01 0.00 0.01 0.01 0.01 0.02 0.02 0.02 0.01 0.02 0.02 0.03 0.02 0.02 0.02 0.02 0.01 0.02 0.02 0.02 0.02 0.01 0.02 0.02 0.03 0.04 0.05 0.09 0.11 0.12 0.12 0.14 0.14 0.14 0.22 0.27 0.23 0.24 0.19 0.14
0.02 0.01 0.01 0.01 0.01 0.01 0.01 0.01 0.01 0.01 0.02 0.02 0.02 0.02 0.03 0.02 0.01 0.01 0.02 0.02 0.02 0.02 0.02 0.01 0.02 0.02 0.01 0.02 0.02 0.03 0.09 0.12 0.08 0.07 0.12 0.12 0.10 0.16 0.25 0.25 0.22 0.15 0.12
0.01 0.00 0.01 0.02 0.02 0.01 0.02 0.02 0.02 0.02 0.02 0.03 0.04 0.03 0.03 0.02 0.02 0.01 0.01 0.02 0.02 0.02 0.02 0.01 0.01 0.02 0.02 0.01 0.02 0.02 0.04 0.06 0.06 0.06 0.09 0.09 0.10 0.12 0.18 0.25 0.18 0.11 0.09
0.01 0.00 0.00 0.01 0.01 0.01 0.02 0.02 0.03 0.03 0.04 0.04 0.04 0.04 0.03 0.02 0.02 0.02 0.02 0.01 0.02 0.02 0.02 0.02 0.02 0.02 0.02 0.02 0.02 0.01 0.03 0.04 0.07 0.08 0.07 0.07 0.08 0.09 0.11 0.14 0.14 0.10 0.08
0.01 0.00 0.00 0.00 0.01 0.01 0.02 0.04 0.04 0.04 0.04 0.05 0.05 0.05 0.05 0.03 0.03 0.02 0.02 0.02 0.02 0.02 0.02 0.02 0.03 0.03 0.03 0.03 0.02 0.02 0.03 0.04 0.04 0.08 0.06 0.07 0.10 0.09 0.09 0.09 0.10 0.11 0.08
0.02 0.02 0.02 0.02 0.01 0.02 0.03 0.05 0.06 0.05 0.05 0.06 0.06 0.06 0.05 0.03 0.02 0.02 0.02 0.02 0.02 0.02 0.03 0.03 0.03 0.04 0.04 0.03 0.03 0.03 0.03 0.03 0.04 0.08 0.04 0.05 0.08 0.08 0.08 0.08 0.08 0.09 0.08
0.05 0.04 0.02 0.02 0.02 0.04 0.05 0.06 0.06 0.06 0.06 0.06 0.06 0.05 0.04 0.03 0.02 0.01 0.01 0.02 0.02 0.03 0.03 0.04 0.04 0.04 0.03 0.03 0.03 0.05 0.03 0.03 0.04 0.05 0.04 0.07 0.08 0.08 0.09 0.08 0.07 0.08 0.08
0.07 0.08 0.07 0.03 0.04 0.06 0.07 0.09 0.06 0.06 0.06 0.07 0.05 0.04 0.03 0.03 0.03 0.02 0.01 0.01 0.01 0.01 0.02 0.03 0.05 0.04 0.04 0.03 0.02 0.03 0.03 0.03 0.03 0.03 0.05 0.10 0.08 0.08 0.09 0.11 0.11 0.11 0.10
0.18 0.19 0.16 0.08 0.06 0.09 0.11 0.13 0.09 0.06 0.06 0.06 0.05 0.04 0.03 0.02 0.03 0.03 0.02 0.01 0.01 0.01 0.01 0.02 0.03 0.03 0.04 0.04 0.04 0.03 0.03 0.03 0.03 0.04 0.05 0.10 0.08 0.08 0.08 0.11 0.15 0.15 0.15
0.13 0.25 0.28 0.18 0.08 0.06 0.06 0.08 0.10 0.06 0.06 0.06 0.05 0.04 0.03 0.03 0.03 0.03 0.02 0.01 0.01 0.01 0.01 0.02 0.03 0.03 0.04 0.05 0.05 0.05 0.05 0.05 0.07 0.08 0.07 0.11 0.10 0.11 0.11 0.11 0.13 0.15 0.16
0.06 0.11 0.20 0.25 0.14 0.09 0.08 0.11 0.10 0.04 0.04 0.07 0.06 0.05 0.05 0.04 0.04 0.03 0.02 0.01 0.01 0.02 0.02 0.02 0.04 0.04 0.06 0.05 0.06 0.06 0.06 0.05 0.06 0.06 0.05 0.08 0.10 0.11 0.14 0.13 0.13 0.14 0.14
0.04 0.06 0.09 0.15 0.15 0.11 0.09 0.10 0.08 0.05 0.04 0.03 0.04 0.04 0.05 0.05 0.05 0.04 0.03 0.04 0.04 0.04 0.04 0.06 0.07 0.07 0.08 0.08 0.08 0.06 0.05 0.05 0.05 0.03 0.03 0.04 0.07 0.11 0.17 0.16 0.11 0.11 0.12
0.03 0.04 0.05 0.07 0.09 0.10 0.12 0.10 0.05 0.04 0.03 0.03 0.03 0.02 0.01 0.02 0.03 0.04 0.05 0.06 0.06 0.07 0.09 0.08 0.07 0.07 0.06 0.06 0.08 0.06 0.04 0.03 0.03 0.03 0.03 0.03 0.04 0.07 0.10 0.12 0.11 0.09 0.08
0.02 0.03 0.04 0.06 0.10 0.16 0.18 0.13 0.08 0.06 0.05 0.05 0.04 0.03 0.02 0.02 0.01 0.02 0.03 0.06 0.07 0.07 0.08 0.08 0.07 0.06 0.06 0.05 0.05 0.05 0.04 0.03 0.02 0.02 0.02 0.03 0.03 0.05 0.06 0.07 0.09 0.08 0.07
0.02 0.02 0.02 0.03 0.05 0.10 0.13 0.10 0.09 0.09 0.07 0.06 0.07 0.06 0.04 0.03 0.04 0.04 0.04 0.05 0.05 0.06 0.07 0.07 0.07 0.08 0.07 0.06 0.06 0.05 0.05 0.04 0.04 0.03 0.02 0.02 0.02 0.03 0.05 0.04 0.04 0.06 0.07
0.02 0.02 0.02 0.02 0.03 0.05 0.09 0.09 0.08 0.11 0.08 0.06 0.08 0.07 0.05 0.04 0.03 0.05 0.05 0.04 0.04 0.04 0.04 0.06 0.07 0.06 0.06 0.07 0.07 0.05 0.04 0.05 0.05 0.04 0.03 0.03 0.03 0.03 0.03 0.04 0.03 0.02 0.04
0.03 0.02 0.01 0.02 0.05 0.07 0.06 0.06 0.08 0.11 0.09 0.05 0.04 0.05 0.04 0.03 0.02 0.02 0.03 0.02 0.03 0.03 0.03 0.04 0.06 0.07 0.05 0.06 0.06 0.04 0.04 0.04 0.04 0.03 0.02 0.02 0.03 0.05 0.04 0.03 0.03 0.02 0.01
0.04 0.03 0.02 0.02 0.05 0.06 0.06 0.07 0.08 0.10 0.09 0.04 0.02 0.03 0.02 0.01 0.01 0.01 0.01 0.02 0.02 0.03 0.03 0.03 0.04 0.05 0.04 0.04 0.04 0.03 0.03 0.04 0.04 0.03 0.03 0.02 0.02 0.03 0.04 0.02 0.02 0.02 0.03
0.04 0.02 0.02 0.01 0.03 0.03 0.04 0.05 0.07 0.07 0.06 0.03 0.02 0.02 0.02 0.02 0.01 0.01 0.01 0.01 0.01 0.02 0.02 0.03 0.03 0.04 0.04 0.04 0.03 0.03 0.03 0.03 0.04 0.03 0.02 0.02 0.02 0.02 0.03 0.02 0.02 0.02 0.03
0.03 0.01 0.01 0.02 0.02 0.02 0.02 0.03 0.05 0.04 0.05 0.04 0.03 0.02 0.02 0.01 0.01 0.00 0.00 0.00 0.01 0.01 0.02 0.02 0.02 0.03 0.04 0.04 0.04 0.04 0.04 0.02 0.03 0.04 0.03 0.02 0.03 0.03 0.03 0.03 0.02 0.02 0.03
0.03 0.02 0.01 0.01 0.02 0.02 0.01 0.02 0.04 0.03 0.04 0.05 0.03 0.02 0.02 0.01 0.01 0.00 0.00 0.01 0.01 0.01 0.01 0.02 0.02 0.02 0.02 0.03 0.05 0.04 0.03 0.02 0.01 0.02 0.03 0.02 0.04 0.04 0.04 0.05 0.04 0.03 0.03
MSLP
1015.20 1014.42 1013.75 1013.28 1013.00 1012.89 1012.89 1012.91 1012.89 1012.81 1012.67 1012.52 1012.41 1012.41 1012.53 1012.78 1013.12 1013.49 1013.83 1014.09 1014.25 1014.31 1014.29 1014.24 1014.19 1014.17 1014.18 1014.21 1014.24 1014.23 1014.19 1014.10 1013.99 1013.90 1013.85 1013.87 1013.96 1014.12 1014.33 1014.55 1014.76 1014.95 1015.11
1015.28 1014.57 1013.95 1013.50 1013.22 1013.08 1013.03 1013.00 1012.94 1012.83 1012.69 1012.55 1012.48 1012.52 1012.68 1012.96 1013.32 1013.71 1014.05 1014.30 1014.45 1014.49 1014.46 1014.40 1014.34 1014.30 1014.30 1014.32 1014.33 1014.33 1014.30 1014.24 1014.17 1014.11 1014.09 1014.12 1014.21 1014.34 1014.50 1014.67 1014.84 1014.99 1015.15
1015.23 1014.62 1014.08 1013.68 1013.42 1013.28 1013.21 1013.15 1013.06 1012.94 1012.80 1012.68 1012.64 1012.70 1012.88 1013.16 1013.51 1013.87 1014.18 1014.40 1014.53 1014.56 1014.53 1014.47 1014.41 1014.37 1014.37 1014.38 1014.40 1014.41 1014.40 1014.38 1014.35 1014.33 1014.34 1014.38 1014.45 1014.55 1014.67 1014.78 1014.90 1015.03 1015.18
1015.08 1014.59 1014.15 1013.83 1013.62 1013.51 1013.45 1013.38 1013.29 1013.17 1013.04 1012.94 1012.90 1012.96 1013.13 1013.39 1013.69 1013.99 1014.25 1014.44 1014.54 1014.56 1014.54 1014.49 1014.45 1014.43 1014.44 1014.47 1014.50 1014.53 1014.55 1014.56 1014.57 1014.59 1014.62 1014.66 1014.72 1014.78 1014.84 1014.90 1014.97 1015.08 1015.22
1014.87 1014.51 1014.20 1013.98 1013.85 1013.79 1013.75 1013.71 1013.63 1013.52 1013.40 1013.30 1013.27 1013.31 1013.45 1013.65 1013.89 1014.12 1014.32 1014.46 1014.54 1014.57 1014.56 1014.55 1014.54 1014.55 1014.58 1014.63 1014.68 1014.73 1014.77 1014.81 1014.85 1014.89 1014.93 1014.97 1015.00 1015.02 1015.03 1015.04 1015.07 1015.15 1015.30
1014.66 1014.43 1014.25 1014.15 1014.11 1014.12 1014.12 1014.10 1014.04 1013.95 1013.84 1013.75 1013.71 1013.73 1013.82 1013.96 1014.13 1014.30 1014.43 1014.53 1014.60 1014.63 1014.66 1014.68 1014.72 1014.77 1014.83 1014.90 1014.96 1015.02 1015.08 1015.13 1015.19 1015.24 1015.29 1015.31 1015.31 1015.28 1015.24 1015.20 1015.20 1015.26 1015.41
1014.52 1014.42 1014.36 1014.37 1014.42 1014.48 1014.53 1014.53 1014.49 1014.41 1014.31 1014.23 1014.18 1014.19 1014.24 1014.33 1014.43 1014.53 1014.62 1014.68 1014.74 1014.79 1014.85 1014.92 1015.00 1015.09 1015.18 1015.26 1015.33 1015.39 1015.45 1015.51 1015.57 1015.62 1015.66 1015.66 1015.63 1015.56 1015.47 1015.40 1015.36 1015.41 1015.56
1014.50 1014.50 1014.56 1014.65 1014.77 1014.87 1014.94 1014.96 1014.92 1014.85 1014.76 1014.69 1014.66 1014.65 1014.68 1014.73 1014.79 1014.84 1014.88 1014.92 1014.97 1015.03 1015.12 1015.22 1015.34 1015.46 1015.58 1015.67 1015.74 1015.81 1015.86 1015.91 1015.96 1016.00 1016.02 1016.00 1015.93 1015.83 1015.71 1015.60 1015.55 1015.58 1015.73
1014.61 1014.70 1014.84 1014.99 1015.14 1015.26 1015.32 1015.33 1015.28 1015.21 1015.15 1015.10 1015.08 1015.09 1015.12 1015.15 1015.18 1015.19 1015.20 1015.22 1015.25 1015.31 1015.42 1015.55 1015.69 1015.84 1015.97 1016.07 1016.15 1016.21 1016.25 1016.30 1016.33 1016.36 1016.35 1016.31 1016.22 1016.09 1015.95 1015.82 1015.75 1015.77 1015.92
1014.85 1015.00 1015.18 1015.37 1015.52 1015.62 1015.65 1015.62 1015.56 1015.49 1015.44 1015.42 1015.44 1015.48 1015.53 1015.57 1015.58 1015.57 1015.55 1015.54 1015.55 1015.60 1015.70 1015.84 1016.00 1016.16 1016.30 1016.42 1016.50 1016.56 1016.61 1016.64 1016.67 1016.67 1016.65 1016.59 1016.48 1016.33 1016.18 1016.04 1015.96 1015.98 1016.12
1015.15 1015.35 1015.56 1015.74 1015.87 1015.93 1015.91 1015.84 1015.76 1015.68 1015.65 1015.67 1015.73 1015.82 1015.90 1015.96 1015.97 1015.95 1015.90 1015.85 1015.83 1015.85 1015.93 1016.06 1016.23 1016.40 1016.56 1016.70 1016.80 1016.88 1016.93 1016.96 1016.97 1016.97 1016.93 1016.85 1016.72 1016.57 1016.41 1016.27 1016.20 1016.22 1016.35
1015.46 1015.70 1015.92 1016.09 1016.17 1016.18 1016.11 1016.00 1015.89 1015.81 1015.80 1015.86 1015.98 1016.11 1016.24 1016.32 1016.34 1016.30 1016.23 1016.14 1016.08 1016.07 1016.12 1016.24 1016.40 1016.58 1016.77 1016.93 1017.07 1017.17 1017.24 1017.28 1017.29 1017.27 1017.21 1017.12 1016.98 1016.83 1016.68 1016.55 1016.48 1016.51 1016.63
1015.72 1015.98 1016.21 1016.35 1016.40 1016.36 1016.25 1016.10 1015.98 1015.92 1015.94 1016.04 1016.20 1016.38 1016.55 1016.65 1016.69 1016.64 1016.54 1016.42 1016.32 1016.28 1016.30 1016.39 1016.55 1016.75 1016.96 1017.17 1017.34 1017.48 1017.58 1017.64 1017.65 1017.62 1017.54 1017.43 1017.29 1017.14 1016.99 1016.88 1016.84 1016.87 1016.98
1015.86 1016.15 1016.38 1016.51 1016.54 1016.47 1016.34 1016.19 1016.07 1016.02 1016.08 1016.22 1016.42 1016.64 1016.84 1016.97 1017.01 1016.96 1016.85 1016.70 1016.58 1016.50 1016.49 1016.58 1016.74 1016.96 1017.20 1017.45 1017.68 1017.86 1017.99 1018.07 1018.08 1018.03 1017.94 1017.81 1017.66 1017.51 1017.38 1017.29 1017.26 1017.31 1017.41
1015.87 1016.17 1016.41 1016.54 1016.57 1016.51 1016.39 1016.26 1016.17 1016.16 1016.25 1016.42 1016.65 1016.89 1017.11 1017.25 1017.30 1017.25 1017.14 1016.99 1016.85 1016.76 1016.75 1016.83 1017.00 1017.24 1017.52 1017.82 1018.09 1018.32 1018.48 1018.57 1018.58 1018.52 1018.41 1018.26 1018.09 1017.94 1017.82 1017.76 1017.76 1017.81 1017.92
1015.73 1016.04 1016.29 1016.44 1016.50 1016.47 1016.40 1016.33 1016.29 1016.32 1016.44 1016.64 1016.88 1017.12 1017.34 1017.48 1017.54 1017.51 1017.41 1017.28 1017.16 1017.08 1017.08 1017.17 1017.35 1017.61 1017.92 1018.25 1018.56 1018.83 1019.02 1019.13 1019.14 1019.07 1018.93 1018.76 1018.58 1018.43 1018.32 1018.27 1018.29 1018.37 1018.48
1015.49 1015.80 1016.06 1016.24 1016.34 1016.38 1016.39 1016.39 1016.43 1016.51 1016.66 1016.86 1017.09 1017.32 1017.51 1017.65 1017.71 1017.70 1017.64 1017.55 1017.47 1017.43 1017.45 1017.56 1017.76 1018.03 1018.36 1018.72 1019.05 1019.35 1019.56 1019.68 1019.70 1019.62 1019.47 1019.29 1019.10 1018.94 1018.84 1018.80 1018.84 1018.93 1019.04
1015.20 1015.50 1015.76 1015.97 1016.13 1016.25 1016.35 1016.45 1016.57 1016.71 1016.87 1017.06 1017.26 1017.45 1017.61 1017.73 1017.80 1017.82 1017.81 1017.78 1017.76 1017.77 1017.83 1017.96 1018.17 1018.45 1018.79 1019.15 1019.50 1019.81 1020.04 1020.18 1020.21 1020.14 1019.99 1019.80 1019.61 1019.45 1019.35 1019.32 1019.37 1019.46 1019.58
1014.90 1015.18 1015.44 1015.67 1015.90 1016.11 1016.31 1016.51 1016.70 1016.89 1017.07 1017.24 1017.39 1017.53 1017.64 1017.73 1017.80 1017.85 1017.90 1017.94 1017.99 1018.06 1018.17 1018.33 1018.55 1018.82 1019.14 1019.49 1019.84 1020.16 1020.42 1020.58 1020.64 1020.59 1020.46 1020.29 1020.10 1019.94 1019.84 1019.82 1019.86 1019.95 1020.06
1014.64 1014.88 1015.13 1015.39 1015.66 1015.95 1016.26 1016.55 1016.82 1017.06 1017.25 1017.39 1017.48 1017.55 1017.61 1017.66 1017.73 1017.81 1017.91 1018.03 1018.16 1018.30 1018.45 1018.63 1018.84 1019.09 1019.39 1019.72 1020.06 1020.39 1020.67 1020.87 1020.97 1020.96 1020.87 1020.72 1020.56 1020.40 1020.31 1020.28 1020.31 1020.40 1020.50
1014.42 1014.63 1014.85 1015.12 1015.44 1015.80 1016.19 1016.57 1016.92 1017.20 1017.39 1017.50 1017.54 1017.55 1017.55 1017.57 1017.63 1017.73 1017.89 1018.07 1018.27 1018.46 1018.65 1018.84 1019.04 1019.26 1019.53 1019.83 1020.16 1020.49 1020.79 1021.04 1021.19 1021.25 1021.22 1021.11 1020.98 1020.84 1020.74 1020.70 1020.73 1020.80 1020.89
1014.22 1014.40 1014.61 1014.88 1015.23 1015.64 1016.10 1016.56 1016.97 1017.29 1017.49 1017.58 1017.59 1017.54 1017.49 1017.47 1017.53 1017.66 1017.85 1018.09 1018.34 1018.58 1018.79 1018.98 1019.17 1019.36 1019.58 1019.85 1020.16 1020.50 1020.83 1021.12 1021.34 1021.47 1021.50 1021.46 1021.36 1021.25 1021.15 1021.10 1021.11 1021.16 1021.24
1014.00 1014.15 1014.34 1014.62 1014.99 1015.45 1015.97 1016.49 1016.96 1017.32 1017.54 1017.63 1017.61 1017.53 1017.45 1017.42 1017.46 1017.60 1017.83 1018.11 1018.40 1018.67 1018.90 1019.09 1019.25 1019.40 1019.59 1019.82 1020.11 1020.45 1020.81 1021.14 1021.43 1021.63 1021.73 1021.74 1021.69 1021.60 1021.52 1021.46 1021.45 1021.49 1021.56
1013.69 1013.85 1014.03 1014.31 1014.69 1015.18 1015.74 1016.32 1016.84 1017.26 1017.52 1017.62 1017.61 1017.52 1017.43 1017.39 1017.44 1017.59 1017.84 1018.14 1018.46 1018.75 1018.98 1019.16 1019.30 1019.43 1019.58 1019.78 1020.05 1020.38 1020.75 1021.12 1021.46 1021.72 1021.88 1021.95 1021.94 1021.89 1021.82 1021.76 1021.74 1021.77 1021.84
1013.28 1013.45 1013.64 1013.91 1014.31 1014.82 1015.42 1016.04 1016.61 1017.07 1017.38 1017.53 1017.54 1017.48 1017.40 1017.36 1017.42 1017.59 1017.85 1018.17 1018.50 1018.80 1019.04 1019.21 1019.33 1019.44 1019.56 1019.73 1019.98 1020.30 1020.67 1021.06 1021.43 1021.73 1021.94 1022.06 1022.09 1022.07 1022.01 1021.97 1021.95 1021.97 1022.04
1012.75 1012.94 1013.15 1013.43 1013.83 1014.35 1014.97 1015.63 1016.24 1016.75 1017.12 1017.31 1017.38 1017.35 1017.30 1017.29 1017.37 1017.54 1017.82 1018.14 1018.48 1018.79 1019.03 1019.21 1019.32 1019.41 1019.51 1019.66 1019.89 1020.19 1020.55 1020.94 1021.31 1021.64 1021.88 1022.03 1022.10 1022.11 1022.08 1022.05 1022.05 1022.08 1022.16
Thickness
5796 5798 5797 5796 5794 5793 5791 5790 5788 5787 5786 5784 5783 5781 5779 5777 5776 5774 5773 5771 5770 5769 5768 5768 5767 5765 5764 5763 5761 5759 5758 5757 5755 5754 5752 5751 5750 5749 5748 5747 5746 5744 5744
5801 5798 5796 5795 5793 5791 5790 5788 5786 5784 5783 5781 5780 5778 5776 5775 5773 5772 5770 5769 5768 5767 5766 5765 5764 5764 5762 5761 5759 5757 5756 5754 5753 5752 5751 5749 5748 5747 5746 5745 5744 5742 5742
5801 5798 5796 5794 5792 5790 5788 5785 5784 5782 5780 5779 5777 5775 5773 5772 5770 5769 5768 5766 5765 5764 5763 5762 5761 5761 5760 5759 5757 5755 5754 5752 5751 5750 5748 5747 5746 5745 5744 5743 5742 5741 5740
5800 5797 5794 5792 5790 5788 5786 5783 5781 5779 5777 5776 5774 5772 5770 5769 5767 5766 5765 5764 5763 5761 5760 5760 5759 5758 5757 5756 5755 5753 5752 5750 5749 5748 5746 5745 5744 5743 5742 5741 5740 5739 5738
5798 5795 5793 5791 5788 5787 5784 5781 5779 5777 5775 5773 5772 5770 5768 5766 5765 5763 5762 5761 5760 5759 5758 5757 5756 5755 5754 5754 5753 5751 5750 5748 5747 5746 5744 5743 5742 5741 5740 5740 5737 5736 5736
5795 5793 5791 5789 5787 5784 5781 5779 5776 5774 5772 5771 5769 5767 5765 5764 5763 5761 5760 5759 5757 5756 5755 5754 5753 5752 5751 5751 5750 5749 5748 5746 5744 5743 5742 5741 5740 5739 5738 5737 5737 5735 5734
5793 5791 5789 5787 5785 5782 5778 5776 5773 5771 5770 5768 5767 5765 5764 5762 5760 5759 5758 5756 5755 5754 5753 5751 5750 5749 5749 5747 5747 5746 5745 5743 5742 5741 5740 5739 5738 5737 5736 5736 5734 5734 5732
5791 5788 5786 5784 5782 5779 5776 5773 5771 5769 5767 5766 5765 5763 5762 5760 5758 5757 5755 5754 5753 5751 5750 5749 5748 5746 5745 5744 5744 5743 5742 5741 5739 5738 5738 5737 5736 5735 5734 5733 5733 5732 5730
5787 5784 5782 5781 5779 5777 5774 5771 5769 5766 5765 5763 5762 5761 5759 5758 5756 5754 5753 5752 5750 5749 5747 5746 5745 5744 5743 5742 5741 5740 5739 5738 5736 5735 5735 5734 5733 5733 5732 5731 5730 5729 5728
5783 5781 5779 5778 5776 5774 5771 5768 5766 5764 5762 5760 5759 5758 5756 5755 5753 5752 5751 5749 5748 5746 5745 5744 5742 5741 5740 5738 5738 5737 5736 5735 5735 5734 5733 5732 5731 5730 5729 5728 5728 5727 5725
5778 5778 5777 5775 5773 5771 5768 5765 5763 5761 5759 5758 5756 5754 5753 5752 5750 5749 5748 5747 5746 5744 5743 5741 5739 5738 5737 5736 5735 5734 5734 5733 5732 5732 5731 5731 5730 5729 5728 5726 5726 5725 5724
5773 5773 5774 5773 5770 5768 5766 5762 5759 5758 5756 5754 5753 5751 5750 5748 5747 5746 5745 5744 5743 5742 5740 5738 5737 5735 5734 5733 5732 5731 5731 5730 5730 5729 5729 5729 5728 5727 5726 5725 5724 5723 5722
5774 5772 5771 5770 5768 5765 5763 5760 5757 5755 5753 5751 5750 5748 5747 5745 5744 5743 5741 5740 5739 5738 5736 5734 5733 5732 5730 5729 5728 5728 5728 5728 5728 5728 5727 5727 5726 5725 5725 5724 5722 5721 5720
5773 5771 5770 5768 5765 5763 5760 5757 5754 5752 5750 5749 5747 5745 5744 5742 5741 5739 5737 5736 5735 5733 5732 5730 5729 5728 5727 5727 5726 5726 5726 5725 5725 5725 5725 5724 5723 5723 5723 5722 5720 5719 5718
5771 5769 5769 5766 5764 5761 5758 5755 5752 5750 5747 5746 5744 5743 5742 5740 5738 5736 5734 5733 5731 5729 5728 5726 5725 5724 5724 5723 5722 5722 5722 5722 5722 5722 5722 5722 5722 5721 5720 5719 5718 5716 5714
5770 5768 5766 5765 5763 5759 5755 5752 5750 5748 5746 5744 5742 5741 5739 5738 5736 5733 5731 5729 5728 5726 5724 5723 5721 5720 5719 5719 5718 5719 5719 5719 5719 5719 5719 5719 5719 5718 5717 5716 5714 5713 5712
5771 5769 5765 5763 5761 5757 5754 5751 5748 5746 5743 5741 5740 5738 5736 5734 5733 5731 5728 5726 5724 5723 5721 5719 5717 5716 5715 5715 5714 5714 5715 5715 5715 5715 5715 5715 5715 5715 5714 5712 5711 5710 5709
5770 5767 5764 5763 5758 5755 5751 5747 5746 5743 5740 5738 5738 5736 5733 5731 5730 5728 5725 5723 5721 5719 5717 5714 5712 5710 5709 5709 5709 5710 5710 5711 5711 5711 5711 5711 5711 5711 5710 5709 5708 5707 5706
5771 5766 5762 5760 5755 5752 5748 5745 5742 5739 5737 5735 5734 5733 5731 5729 5727 5725 5722 5719 5717 5715 5712 5711 5708 5706 5705 5704 5705 5705 5706 5706 5707 5707 5707 5707 5707 5707 5706 5705 5704 5704 5703
5769 5765 5761 5757 5753 5749 5745 5741 5738 5735 5733 5732 5731 5730 5728 5726 5724 5722 5719 5716 5714 5710 5707 5706 5704 5703 5701 5701 5701 5701 5701 5702 5702 5703 5703 5703 5702 5702 5702 5701 5701 5700 5700
5764 5761 5758 5753 5750 5746 5741 5736 5733 5730 5729 5729 5728 5727 5725 5723 5721 5719 5716 5713 5710 5707 5705 5704 5701 5699 5697 5697 5694 5692 5694 5696 5697 5698 5698 5698 5697 5697 5697 5696 5696 5696 5696
5760 5757 5753 5750 5747 5744 5740 5736 5733 5729 5727 5725 5725 5724 5722 5720 5718 5716 5713 5710 5708 5704 5702 5701 5698 5695 5693 5693 5688 5683 5681 5684 5689 5693 5692 5693 5693 5692 5692 5692 5692 5692 5692
5757 5754 5751 5747 5744 5742 5739 5735 5731 5727 5723 5721 5720 5719 5718 5717 5715 5713 5711 5708 5705 5702 5699 5698 5696 5692 5688 5688 5687 5682 5676 5674 5678 5683 5685 5687 5687 5687 5687 5688 5689 5689 5688
5755 5753 5749 5745 5741 5738 5736 5733 5728 5722 5718 5717 5717 5716 5715 5714 5713 5711 5708 5705 5703 5700 5697 5695 5694 5691 5688 5684 5683 5683 5681 5678 5673 5672 5676 5680 5681 5682 5683 5685 5685 5685 5685
5754 5751 5748 5743 5739 5736 5733 5730 5724 5720 5717 5716 5714 5712 5711 5710 5709 5707 5705 5702 5700 5698 5695 5693 5691 5689 5686 5683 5681 5679 5677 5675 5673 5669 5667 5671 5674 5677 5679 5681 5681 5682 5682
5750 5747 5744 5739 5735 5733 5730 5727 5722 5718 5715 5712 5710 5708 5707 5706 5705 5704 5702 5700 5697 5695 5693 5691 5689 5687 5685 5682 5680 5677 5675 5672 5670 5667 5664 5664 5666 5670 5674 5676 5677 5678 5678